Location: Moscow
(55.7500°N, 37.5830°E)
Time: 08:33:35
(UTC+03:00)

N. Korean satellite - Pass Details

Date: 30 October 2021
Orbit: 446 x 495 km, 97.3° (Epoch: 04 December)

Event Time Altitude Azimuth Distance (km) Brightness Sun altitude
Rises 05:40:22 0° 17° (NNE) 2,598 10.5 -16.0°
Reaches altitude 10° 05:42:30 10° 22° (NNE) 1,706 9.6 -15.7°
Maximum altitude 05:46:06 52° 100° (E) 623 7.5 -15.2°
Drops below altitude 10° 05:49:37 10° 178° (S) 1,671 9.3 -14.7°
Sets 05:51:42 0° 183° (S) 2,539 10.2 -14.4°
